FW0663 Weather Reports


time (UTC)temp
C
wind
direction
speed
KPH
gust
KPH
rain 1hr
cm
rain 24hr
cm
rain mn
cm
humidity
%
barometer
mb
20260831191534 24 328 1.6 8.0 0.00 0.00 0.00 22 1012.4
20260831190013 23 341 3.2 12.9 0.00 0.00 0.00 23 1012.6
20260831184509 22 43 1.6 8.0 0.00 0.00 0.00 26 1013.0
20260831183004 22 286 1.6 8.0 0.00 0.00 0.00 24 1013.3
20260831181501 21 252 1.6 6.4 0.00 0.00 0.00 27 1013.6
20260831180058 20 60 1.6 6.4 0.00 0.00 0.00 27 1013.9
20260831174553 19 345 3.2 8.0 0.00 0.00 0.00 32 1014.2
20260831173049 18 277 3.2 8.0 0.00 0.00 0.00 30 1014.3
20260831171545 17 240 0.0 6.4 0.00 0.00 0.00 36 1014.6
20260831170042 16 242 0.0 3.2 0.00 0.00 0.00 38 1014.8
20260831164537 16 317 0.0 4.8 0.00 0.00 0.00 34 1015.0
20260831163035 15 296 0.0 3.2 0.00 0.00 0.00 36 1015.1
20260831161533 14 153 0.0 3.2 0.00 0.00 0.00 40 1015.4
20260831160030 13 82 0.0 6.4 0.00 0.00 0.00 46 1015.6
20260831154538 12 74 0.0 4.8 0.00 0.00 0.00 48 1015.8
20260831153024 11 84 0.0 6.4 0.00 0.00 0.00 48 1015.9
20260831151525 10 76 0.0 4.8 0.00 0.00 0.00 54 1016.1
20260831150014 8 87 0.0 3.2 0.00 0.00 0.00 54 1016.1
20260831144514 7 83 0.0 4.8 0.00 0.00 0.00 61 1016.1
20260831143012 6 100 0.0 4.8 0.00 0.00 0.00 63 1016.1
20260831141513 5 115 1.6 4.8 0.00 0.00 0.00 62 1016.0
20260831140010 4 157 0.0 0.0 0.00 0.00 0.00 65 1016.1
20260831134509 4 157 0.0 0.0 0.00 0.00 0.00 63 1016.1
20260831133008 5 117 0.0 0.0 0.00 0.00 0.00 64 1016.1
20260831131506 5 91 0.0 3.2 0.00 0.00 0.00 61 1016.0
20260831130005 4 131 0.0 3.2 0.00 0.00 0.00 64 1016.0
20260831124510 5 113 0.0 4.8 0.00 0.00 0.00 62 1016.2
20260831123002 5 107 1.6 4.8 0.00 0.00 0.00 63 1016.2
20260831121609 5 135 0.0 3.2 0.00 0.00 0.00 62 1016.3
20260831120058 5 127 1.6 3.2 0.00 0.00 0.00 62 1016.4
20260831114556 5 127 0.0 0.0 0.00 0.00 0.00 60 1016.4
20260831113054 5 126 0.0 3.2 0.00 0.00 0.00 61 1016.5
20260831111554 5 142 0.0 3.2 0.00 0.00 0.00 63 1016.5
20260831110050 6 99 1.6 4.8 0.00 0.00 0.00 58 1016.7
20260831104549 6 128 0.0 3.2 0.00 0.00 0.00 59 1016.7
20260831103052 6 110 0.0 3.2 0.00 0.00 0.00 60 1016.8
20260831101557 6 115 1.6 4.8 0.00 0.00 0.00 59 1016.7
20260831100100 6 101 0.0 0.0 0.00 0.00 0.00 65 1016.7
20260831094539 6 98 0.0 0.0 0.00 0.00 0.00 59 1016.8
20260831093045 7 115 0.0 0.0 0.00 0.00 0.00 58 1016.8
20260831091537 7 105 0.0 0.0 0.00 0.00 0.00 56 1016.9
20260831090033 7 129 0.0 0.0 0.00 0.00 0.00 55 1016.9
20260831084531 8 120 0.0 0.0 0.00 0.00 0.00 55 1017.1
20260831083030 7 123 0.0 0.0 0.00 0.00 0.00 54 1017.1
20260831081534 8 111 0.0 0.0 0.00 0.00 0.00 55 1017.0
20260831080025 8 111 0.0 0.0 0.00 0.00 0.00 52 1017.1
20260831074528 8 119 0.0 0.0 0.00 0.00 0.00 53 1017.2
20260831073024 8 123 0.0 0.0 0.00 0.00 0.00 55 1017.1
20260831071521 8 112 0.0 0.0 0.00 0.00 0.00 54 1017.1
20260831070020 8 96 0.0 0.0 0.00 0.00 0.00 52 1017.1
20260831064519 10 96 0.0 0.0 0.00 0.00 0.00 52 1017.1
20260831063022 9 121 0.0 1.6 0.00 0.00 0.00 51 1017.0
20260831061518 9 106 0.0 3.2 0.00 0.00 0.00 55 1016.9
20260831060020 9 106 0.0 3.2 0.00 0.00 0.00 54 1016.9
20260831054517 10 103 0.0 3.2 0.00 0.00 0.00 55 1017.0
20260831053039 10 97 1.6 3.2 0.00 0.00 0.00 55 1017.0
20260831051517 10 105 0.0 1.6 0.00 0.00 0.00 51 1017.0
20260831050016 10 118 0.0 3.2 0.00 0.00 0.00 53 1017.0
20260831044516 11 139 0.0 3.2 0.00 0.00 0.00 53 1017.0
20260831043015 12 99 0.0 3.2 0.00 0.00 0.00 51 1017.0
20260831041515 13 90 0.0 0.0 0.00 0.00 0.00 39 1016.9
20260831040015 13 90 0.0 0.0 0.00 0.00 0.00 44 1016.9
20260831034514 15 90 0.0 0.0 0.00 0.00 0.00 39 1016.8
20260831033027 17 215 0.0 1.6 0.00 0.00 0.00 36 1016.6
20260831031513 18 236 0.0 3.2 0.00 0.00 0.00 29 1016.5
20260831030013 19 247 0.0 3.2 0.00 0.00 0.00 24 1016.3
20260831024512 20 299 0.0 3.2 0.00 0.00 0.00 26 1016.2
20260831023018 22 307 0.0 3.2 0.00 0.00 0.00 23 1016.1
20260831021514 22 302 0.0 3.2 0.00 0.00 0.00 21 1016.1
20260831020011 24 257 0.0 4.8 0.00 0.00 0.00 20 1016.2
20260831014509 25 286 0.0 3.2 0.00 0.00 0.00 20 1016.3
20260831013008 25 271 0.0 0.0 0.00 0.00 0.00 18 1016.4
20260831011507 25 206 0.0 3.2 0.00 0.00 0.00 15 1016.4
20260831010005 25 333 3.2 6.4 0.00 0.00 0.00 14 1016.6
20260831004504 25 301 0.0 6.4 0.00 0.00 0.00 16 1016.8
20260831003002 25 302 4.8 11.3 0.00 0.00 0.00 16 1016.9
20260831001600 25 333 3.2 9.7 0.00 0.00 0.00 18 1017.0
20260831000059 25 302 4.8 11.3 0.00 0.00 0.00 15 1017.1
20260830234609 25 323 3.2 8.0 0.00 0.00 0.00 14 1017.3
20260830233055 25 355 3.2 6.4 0.00 0.00 0.00 12 1017.5
20260830231551 25 317 1.6 11.3 0.00 0.00 0.00 12 1017.8
20260830230049 24 327 6.4 11.3 0.00 0.00 0.00 10 1018.0
20260830224546 24 273 1.6 11.3 0.00 0.00 0.00 11 1018.1
20260830223043 23 331 4.8 9.7 0.00 0.00 0.00 16 1018.3
20260830221546 23 228 3.2 11.3 0.00 0.00 0.00 22 1018.4
20260830220046 23 72 0.0 9.7 0.00 0.00 0.00 22 1018.7
20260830214541 23 234 3.2 8.0 0.00 0.00 0.00 23 1018.9
20260830213043 22 75 3.2 12.9 0.00 0.00 0.00 24 1019.2
20260830211549 22 271 1.6 8.0 0.00 0.00 0.00 26 1019.4
20260830210047 21 360 3.2 16.1 0.00 0.00 0.00 27 1019.6
20260830204524 21 336 3.2 11.3 0.00 0.00 0.00 26 1019.6
20260830203037 22 319 3.2 8.0 0.00 0.00 0.00 27 1019.9
20260830201521 21 80 1.6 9.7 0.00 0.00 0.00 27 1020.0
20260830200016 20 18 3.2 8.0 0.00 0.00 0.00 33 1020.0
20260830194514 20 355 6.4 16.1 0.00 0.00 0.00 32 1020.3
20260830193017 19 143 1.6 6.4 0.00 0.00 0.00 36 1020.4